Location: Poughquag
(41.6090°N, 73.6820°W)
Time: 12:25:49
(UTC-04:00)

Vanguard 1 Rocket - Pass Details

Date: 03 June 2020
Orbit: 653 x 4224 km, 34.3° (Epoch: 06 July)

Event Time Altitude Azimuth Distance (km) Brightness Sun altitude
Rises 04:15:47 0° 272° (W) 7,027 11.5 -10.7°
Reaches altitude 10° 04:21:24 10° 269° (W) 5,430 10.9 -9.9°
Maximum altitude 04:34:38 50° 200° (SSW) 1,959 8.8 -8.0°
Drops below altitude 10° 04:41:36 10° 126° (SE) 2,937 10.2 -7.0°
Sets 04:43:46 0° 120° (ESE) 3,641 10.8 -6.7°
